Lubbock, TX

7:02 PM CST on November 17, 2019 (GMT -0600)
Lubbock International

Weather History for KLBB - August, 2019

Change the Weather History Date:

Wednesday, August 14, 2019

  Actual Average Record
Temperature  
Mean Temperature 82 °F 80 °F  
Max Temperature 96 °F 92 °F 103 °F (1946)
Min Temperature 68 °F 67 °F 53 °F (1920)
Degree Days  
Heating Degree Days 0 0  
Month to date heating degree days 0 0  
Since 1 June heating degree days 0 2  
Since 1 July heating degree days 0 0  
Cooling Degree Days 17 14  
Month to date cooling degree days 291 209  
Year to date cooling degree days 1398 1302  
Since 1 June cooling degree days 1188 1056  
Growing Degree Days 32 (Base 50)    
Moisture  
Dew Point 59 °F    
Average Humidity 51    
Maximum Humidity 79    
Minimum Humidity 22    
Precipitation  
Precipitation 0.00 in 0.06 in 0.88 in (1990)
Month to date precipitation 0.13 0.85  
Year to date precipitation 13.58 12.01  
Snow  
Snow 0.00 in 0.00 in 0.00 in (2002)
Month to date snowfall 0.0 0.0  
Since 1 June snowfall 0.0 0.0  
Since 1 July snowfall 0.0 0.0  
Snow Depth 0.00 in    
Sea Level Pressure  
Sea Level Pressure 29.99 in    
Wind  
Wind Speed 10 mph (ENE)    
Max Wind Speed 22 mph    
Max Gust Speed 29 mph    
Visibility 10 miles    
Events      
T = Trace of Precipitation, MM = Missing Value Source: NWS Daily Summary

Daily Weather History Graph

Daily Weather History Graph

Search for Another Location

Airport or City:

Astronomy

Aug. 14, 2019 Rise Set
Actual Time 7:08 AM CDT 8:34 PM CDT
Civil Twilight 6:42 AM CDT 9:01 PM CDT
Nautical Twilight 6:10 AM CDT 9:32 PM CDT
Astronomical Twilight 5:37 AM CDT 10:05 PM CDT
Moon 8:26 PM CDT (8/14) 6:12 AM CDT (8/14)
Length of Visible Light 14h 19m
Length of Day
13h 26m
Waxing Gibbous, 99% of the Moon is Illuminated
Aug 14
Waxing Gibbous
Aug 15
Full
Aug 23
Last Quarter
Aug 30
New
Sep 5
First Quarter

Hourly Weather History & Observations

Time (CDT) Temp. Heat Index Dew Point Humidity Pressure Visibility Wind Dir Wind Speed Gust Speed Precip Events Conditions
12:53 AM 75.0 °F - 64.0 °F 69% 29.96 in 10.0 mi East 5.8 mph - N/A   Scattered Clouds
1:53 AM 75.0 °F - 64.9 °F 71% 29.97 in 10.0 mi East 9.2 mph - N/A   Scattered Clouds
2:53 AM 73.9 °F - 64.9 °F 73% 29.98 in 10.0 mi ENE 10.4 mph - N/A   Scattered Clouds
3:53 AM 73.0 °F - 64.9 °F 76% 29.97 in 10.0 mi ENE 6.9 mph - N/A   Scattered Clouds
4:53 AM 73.0 °F - 64.9 °F 76% 29.97 in 10.0 mi ENE 8.1 mph - N/A   Scattered Clouds
5:53 AM 71.1 °F - 64.9 °F 81% 30.00 in 10.0 mi NE 16.1 mph 25.3 mph N/A   Scattered Clouds
6:53 AM 69.1 °F - 59.0 °F 70% 30.03 in 10.0 mi NE 20.7 mph 27.6 mph N/A   Scattered Clouds
7:53 AM 69.1 °F - 59.0 °F 70% 30.07 in 10.0 mi NE 17.3 mph - N/A   Mostly Cloudy
8:53 AM 73.0 °F - 60.1 °F 64% 30.09 in 10.0 mi NNE 15.0 mph - N/A   Mostly Cloudy
9:53 AM 78.1 °F - 61.0 °F 56% 30.11 in 10.0 mi North 11.5 mph - N/A   Mostly Cloudy
10:53 AM 82.0 °F 83.0 °F 62.1 °F 51% 30.08 in 10.0 mi NNE 13.8 mph - N/A   Mostly Cloudy
11:53 AM 87.1 °F 85.9 °F 57.0 °F 36% 30.03 in 10.0 mi SSE 11.5 mph - N/A   Scattered Clouds
12:53 PM 90.0 °F 88.1 °F 55.9 °F 31% 30.03 in 10.0 mi East 19.6 mph - N/A   Partly Cloudy
1:53 PM 93.9 °F 92.2 °F 55.9 °F 28% 30.01 in 10.0 mi ENE 13.8 mph 20.7 mph N/A   Partly Cloudy
2:53 PM 93.9 °F - 52.0 °F 24% 29.99 in 10.0 mi NE 6.9 mph - N/A   Partly Cloudy
3:53 PM 95.0 °F - 51.1 °F 22% 29.95 in 10.0 mi East 6.9 mph - N/A   Partly Cloudy
4:53 PM 96.1 °F - 51.1 °F 22% 29.92 in 10.0 mi NE 6.9 mph - N/A   Partly Cloudy
5:53 PM 93.9 °F - 51.1 °F 23% 29.92 in 10.0 mi ENE 6.9 mph - N/A   Partly Cloudy
6:53 PM 93.0 °F 90.8 °F 54.0 °F 27% 29.92 in 10.0 mi East 6.9 mph - N/A   Partly Cloudy
7:53 PM 89.1 °F 87.7 °F 57.0 °F 34% 29.94 in 10.0 mi East 4.6 mph - N/A   Scattered Clouds
8:53 PM 84.0 °F 83.5 °F 57.9 °F 41% 29.96 in 10.0 mi East 6.9 mph - N/A   Scattered Clouds
9:53 PM 81.0 °F 81.1 °F 57.9 °F 45% 29.98 in 10.0 mi East 8.1 mph - N/A   Scattered Clouds
10:53 PM 79.0 °F - 57.9 °F 48% 30.00 in 10.0 mi ESE 8.1 mph - N/A   Scattered Clouds
11:53 PM 78.1 °F - 59.0 °F 52% 29.99 in 10.0 mi ESE 6.9 mph - N/A   Mostly Cloudy